Torna al catalogo

MONITOR-3

AttivoRadioamatoreSSO
NORAD 57180·PAYLOAD·🇷🇺 Russia
Questo nome del satellite non è ancora stato confermato da fonti ufficiali.

Lanciato Jun 27, 2023 da Vostochny Cosmodrome

Loading…

Prossimi Passaggi (prossime 24 ore)

TLE

AggiornatoSource: Space-Track

Epoca: Sep 14, 2026, 14:47 UTC

1 57180U 23091Q   26257.61617786  .00008404  00000-0  29698-3 0  9993
2 57180  97.4990 321.7761 0012233 138.7673 221.4493 15.29382849177959

Traccia MONITOR-3 in tempo reale con AllMySat

Download on the App Store